Regional Weather Roundup
Issued by NWS

Home | Current Version | Previous Version | Text Only | Print | Product List | Glossary On
Versions: 1 2 3 4 5 6 7 8 9 10 11 12 13 14 15 16 17 18 19 20 21 22 23 24 25 26 27 28 29 30 31 32 33 34 35 36 37 38 39 40 41 42 43 44 45 46 47 48 49 50
000
ASUS43 KOAX 180510
RWRNE

WEATHER ROUNDUP FOR NEBRASKA
NATIONAL WEATHER SERVICE OMAHA NE
1200 AM CDT FRI APR 18 2014

NOTES: SATELLITE DATA IS BEING USED TO AUGMENT CLOUD COVER ABOVE
       12000 FEET.
       "FAIR" INDICATES FEW OR NO CLOUDS BELOW 12,000 FEET WITH NO
       SIGNIFICANT WEATHER AND/OR OBSTRUCTIONS TO VISIBILITY.

  * THESE STATIONS DO NOT REPORT WEATHER SUCH AS RAIN...SNOW OR FOG.

NEZ001>004-019>022-054>056-180600-
NEBRASKA PANHANDLE

CITY           SKY/WX    TMP DP  RH WIND       PRES   REMARKS
SCOTTSBLUFF    CLEAR     43  36  76 E15       29.95F
ALLIANCE       CLEAR     44  37  76 S17       29.97F
CHADRON        CLEAR     48  38  68 SE29G37   29.91F
KIMBALL        CLEAR     43  32  65 S10       29.98F
SIDNEY         CLEAR     45  36  70 S17       30.02F
$$

NEZ057>060-069>072-079>082-180600-
SOUTHWEST NEBRASKA

CITY           SKY/WX    TMP DP  RH WIND       PRES   REMARKS
NORTH PLATTE   PTCLDY    44  31  60 SE9       30.13R
IMPERIAL       CLEAR     45  37  73 S17       30.10F
LEXINGTON      CLEAR     42  32  69 SE9       30.17S
MCCOOK         CLEAR     44  36  73 S9        30.16S
OGALLALA       CLEAR     47  37  68 S18G25    30.06S
$$

NEZ005>010-023>029-035>040-094-180600-
NORTH CENTRAL NEBRASKA

CITY           SKY/WX    TMP DP  RH WIND       PRES   REMARKS
VALENTINE      PTCLDY    43  28  55 S14       30.08F
AINSWORTH      CLEAR     43  29  58 S12       30.11F
BROKEN BOW     CLEAR     36  28  73 SE7       30.15S WCI  30
O`NEILL        PTCLDY    39  22  50 SE6       30.19R WCI  35
ORD            CLEAR     41  26  55 S6        30.18R
THEDFORD       CLEAR     44  33  64 SE10      30.11F
$$

NEZ041-046>049-061>064-073>077-083>087-180600-
SOUTH CENTRAL NEBRASKA

CITY           SKY/WX    TMP DP  RH WIND       PRES   REMARKS
GRAND ISLAND   CLEAR     43  28  55 S8        30.22S
AURORA         CLEAR     39  28  64 SE7       30.22S WCI  34
HASTINGS       PTCLDY    43  27  53 S7        30.21S
HEBRON         PTCLDY    39  29  67 S7        30.24F WCI  34
HOLDREGE       CLEAR     42  30  61 S12       30.19S
KEARNEY *      CLEAR     39  28  65 S12       30.20R WCI  32
YORK           CLEAR     39  27  60 SE7       30.24S WCI  34
$$

NEZ011>018-030>034-042>045-180600-
NORTHEAST NEBRASKA

CITY           SKY/WX    TMP DP  RH WIND       PRES   REMARKS
NORFOLK        CLEAR     37  24  59 SE7       30.23R WCI  32
ALBION         CLEAR     37  25  61 SE7       30.21F WCI  31
BLAIR          CLEAR     46  24  42 SE6       30.25S
COLUMBUS *     CLEAR     36  21  55 E3        30.25R
FREMONT        CLEAR     40  28  62 CALM      30.26S
TEKAMAH        PTCLDY    35  23  61 CALM      30.26S
$$

NEZ050>053-065>068-078-088>093-180600-
SOUTHEAST NEBRASKA

CITY           SKY/WX    TMP DP  RH WIND       PRES   REMARKS
LINCOLN        CLEAR     37  25  61 CALM      30.27S
OMAHA EPPLEY   PTCLDY    40  29  64 CALM      30.27S
BEATRICE       CLEAR     43  28  54 SE5       30.26S
FALLS CITY     CLEAR     41  29  62 S3        30.27R
NEBRASKA CITY  CLEAR     42  27  55 S3        30.26S
PLATTSMOUTH    CLEAR     44  24  45 SE3       30.26S
$$

NEZ044-045-051>053-067-180600-
OMAHA AREA

CITY           SKY/WX    TMP DP  RH WIND       PRES   REMARKS
OMAHA EPPLEY   PTCLDY    40  29  64 CALM      30.27S
BLAIR          CLEAR     46  24  42 SE6       30.25S
FREMONT        CLEAR     40  28  62 CALM      30.26S
MILLARD        CLEAR     39  27  62 CALM      30.26S
OFFUTT AFB     CLEAR     33  28  82 CALM      30.26S
PLATTSMOUTH    CLEAR     44  24  45 SE3       30.26S
WAHOO          FAIR      38  23  55 S3        30.25F
$$



USA.gov is the U.S. government's official web portal to all federal, state and local government web resources and services.